Kenai, AK

9:12 AM AKST on December 11, 2019 (GMT -0900)
Kenai Municipal

Weather History for PAEN - October, 2019

Change the Weather History Date:

Monday, October 7, 2019

  Actual Average Record
Temperature  
Mean Temperature 36 °F -  
Max Temperature 48 °F 46 °F 56 °F (1993)
Min Temperature 23 °F 33 °F 12 °F (1958)
Degree Days  
Heating Degree Days 30    
Moisture  
Dew Point 24 °F    
Average Humidity 63    
Maximum Humidity 85    
Minimum Humidity 36    
Precipitation  
Precipitation 0.00 in - - ()
Sea Level Pressure  
Sea Level Pressure 30.29 in    
Wind  
Wind Speed 2 mph (NE)    
Max Wind Speed 7 mph    
Max Gust Speed -    
Visibility 10 miles    
Events      
Averages and records for this station are not official NWS values.
T = Trace of Precipitation, MM = Missing Value Source: NWS Daily Summary

Daily Weather History Graph

Daily Weather History Graph

Search for Another Location

Airport or City:

Astronomy

Oct. 07, 2019 Rise Set
Actual Time 8:25 AM AKDT 7:18 PM AKDT
Civil Twilight 7:43 AM AKDT 8:00 PM AKDT
Nautical Twilight 6:54 AM AKDT 8:49 PM AKDT
Astronomical Twilight 6:03 AM AKDT 9:40 PM AKDT
Moon 6:36 PM AKDT (10/7) 12:27 AM AKDT (10/7)
Length of Visible Light 12h 17m
Length of Day
10h 52m
Waxing Gibbous, 70% of the Moon is Illuminated
Oct 7
Waxing Gibbous
Oct 13
Full
Oct 21
Last Quarter
Oct 27
New
Nov 4
First Quarter

Hourly Weather History & Observations

Time (AKDT) Temp. Windchill Dew Point Humidity Pressure Visibility Wind Dir Wind Speed Gust Speed Precip Events Conditions
12:53 AM 30.9 °F - 23.0 °F 72% 30.16 in 10.0 mi Calm Calm - N/A   Clear
2:53 AM 27.0 °F 23.0 °F 21.9 °F 81% 30.19 in 10.0 mi NE 3.5 mph - N/A   Clear
3:53 AM 25.0 °F 20.7 °F 19.0 °F 78% 30.22 in 10.0 mi NE 3.5 mph - N/A   Clear
4:53 AM 25.0 °F 20.7 °F 19.0 °F 78% 30.23 in 10.0 mi NE 3.5 mph - N/A   Clear
5:53 AM 23.0 °F 18.4 °F 18.0 °F 81% 30.25 in 10.0 mi NE 3.5 mph - N/A   Clear
6:53 AM 23.0 °F - 19.0 °F 85% 30.27 in 10.0 mi Calm Calm - N/A   Clear
7:53 AM 24.1 °F 19.7 °F 19.0 °F 81% 30.28 in 10.0 mi North 3.5 mph - N/A   Clear
8:53 AM 24.1 °F 19.7 °F 18.0 °F 77% 30.30 in 10.0 mi NE 3.5 mph - N/A   Clear
9:53 AM 28.0 °F 24.2 °F 21.9 °F 78% 30.30 in 10.0 mi ENE 3.5 mph - N/A   Clear
10:53 AM 39.0 °F 36.8 °F 28.9 °F 67% 30.32 in 10.0 mi NE 3.5 mph - N/A   Clear
11:53 AM 44.1 °F - 24.1 °F 45% 30.33 in 10.0 mi Calm Calm - N/A   Clear
12:53 PM 46.9 °F - 23.0 °F 39% 30.33 in 10.0 mi NE 6.9 mph - N/A   Clear
1:53 PM 48.2 °F - 23.0 °F 37% 30.33 in 10.0 mi Calm Calm - N/A   Clear
2:53 PM 48.9 °F - 23.0 °F 36% 30.33 in 10.0 mi Calm Calm - N/A   Clear
3:53 PM 48.0 °F - 23.0 °F 37% 30.33 in 10.0 mi Calm Calm - N/A   Clear
4:53 PM 48.9 °F - 25.0 °F 39% 30.33 in 10.0 mi Variable 3.5 mph - N/A   Clear
5:53 PM 48.0 °F - 26.1 °F 42% 30.33 in 10.0 mi NW 3.5 mph - N/A   Clear
6:53 PM 45.0 °F - 28.0 °F 52% 30.32 in 10.0 mi Calm Calm - N/A   Clear
7:53 PM 39.9 °F - 30.0 °F 68% 30.32 in 10.0 mi Calm Calm - N/A   Partly Cloudy
8:53 PM 39.0 °F - 28.9 °F 67% 30.32 in 10.0 mi Calm Calm - N/A   Mostly Cloudy
9:53 PM 37.9 °F - 30.0 °F 73% 30.32 in 10.0 mi Calm Calm - N/A   Scattered Clouds
10:53 PM 36.0 °F 33.3 °F 27.0 °F 70% 30.31 in 10.0 mi NE 3.5 mph - N/A   Overcast
11:53 PM 36.0 °F - 26.1 °F 67% 30.31 in 10.0 mi Calm Calm - N/A   Partly Cloudy